Precipitable_Water
0.88 0.87 0.82 0.80 0.76 0.76 0.79 0.82 0.84 0.86 0.85 0.87 0.87 0.91 0.93 0.94 0.95 0.96 0.97 0.98 0.98 0.98 0.96 0.96 0.99 1.01 1.03 1.05 1.02 1.00 1.09 1.04 1.05 1.10 1.15 1.18 1.16 1.14 1.18 1.24 1.26 1.23 1.22 1.24 1.26 1.26 1.22 1.18 1.17 1.17 1.18 1.27 1.34 1.31 1.30 1.33 1.40 1.44 1.41 1.43 1.49 1.62 1.56 1.33 1.21 1.23 1.32 1.54 1.57 1.57 1.58 1.56 1.58 1.66 1.59 1.62 1.63 1.67 1.72 1.73 1.71 1.70 1.72 1.75 1.78
0.92 0.86 0.81 0.77 0.74 0.77 0.79 0.81 0.83 0.85 0.84 0.87 0.89 0.93 0.93 0.92 0.93 0.97 0.97 0.99 1.01 0.97 0.97 0.99 1.01 1.03 1.04 1.07 1.08 1.07 1.07 1.07 1.07 1.07 1.07 1.10 1.13 1.21 1.25 1.20 1.18 1.22 1.24 1.21 1.25 1.25 1.24 1.22 1.21 1.21 1.23 1.18 1.17 1.28 1.36 1.29 1.33 1.36 1.31 1.30 1.33 1.52 1.63 1.37 1.20 1.21 1.24 1.48 1.60 1.64 1.46 1.48 1.48 1.54 1.51 1.61 1.62 1.57 1.61 1.76 1.77 1.74 1.69 1.72 1.69
0.97 0.91 0.82 0.77 0.79 0.80 0.81 0.82 0.84 0.85 0.84 0.87 0.89 0.88 0.90 0.91 0.93 0.94 0.97 0.98 1.01 1.00 0.98 0.97 0.98 1.02 1.04 1.06 1.10 1.12 1.11 1.06 1.08 1.06 1.06 1.10 1.14 1.21 1.23 1.22 1.19 1.18 1.19 1.20 1.21 1.23 1.21 1.20 1.22 1.26 1.27 1.23 1.19 1.17 1.26 1.35 1.33 1.29 1.25 1.31 1.35 1.49 1.70 1.53 1.26 1.24 1.34 1.44 1.60 1.56 1.43 1.41 1.47 1.46 1.44 1.57 1.65 1.65 1.62 1.76 1.78 1.70 1.64 1.68 1.69
0.94 0.94 0.84 0.80 0.82 0.82 0.82 0.85 0.83 0.82 0.83 0.88 0.88 0.90 0.92 0.94 0.95 0.93 0.96 0.98 1.00 1.03 1.04 1.01 1.01 1.03 1.05 1.09 1.12 1.13 1.13 1.09 1.07 1.06 1.07 1.09 1.14 1.18 1.19 1.20 1.18 1.20 1.19 1.20 1.24 1.26 1.25 1.22 1.21 1.26 1.30 1.24 1.20 1.24 1.30 1.34 1.40 1.34 1.29 1.29 1.29 1.49 1.65 1.61 1.44 1.29 1.39 1.41 1.49 1.46 1.37 1.36 1.50 1.55 1.53 1.55 1.57 1.59 1.65 1.69 1.80 1.74 1.60 1.55 1.59
0.95 0.88 0.82 0.81 0.85 0.86 0.86 0.87 0.84 0.84 0.85 0.88 0.87 0.90 0.91 0.92 0.94 0.92 0.93 0.99 1.01 1.00 0.98 1.00 1.03 1.03 1.04 1.07 1.10 1.11 1.10 1.08 1.05 1.05 1.07 1.11 1.10 1.13 1.19 1.20 1.20 1.18 1.20 1.22 1.25 1.26 1.27 1.27 1.26 1.26 1.29 1.29 1.25 1.22 1.29 1.26 1.37 1.36 1.32 1.32 1.25 1.36 1.58 1.54 1.34 1.30 1.29 1.30 1.34 1.44 1.42 1.37 1.49 1.56 1.53 1.49 1.53 1.54 1.71 1.77 1.75 1.72 1.63 1.54 1.59
0.99 0.90 0.82 0.81 0.85 0.87 0.89 0.87 0.84 0.84 0.87 0.88 0.89 0.91 0.93 0.96 0.95 0.92 0.89 0.86 0.88 0.90 0.91 0.95 1.02 1.05 1.05 1.06 1.08 1.09 1.10 1.10 1.11 1.10 1.09 1.08 1.09 1.11 1.11 1.09 1.10 1.15 1.20 1.21 1.23 1.27 1.28 1.31 1.31 1.29 1.30 1.30 1.29 1.28 1.28 1.26 1.30 1.30 1.28 1.29 1.25 1.33 1.49 1.51 1.39 1.24 1.30 1.31 1.33 1.37 1.34 1.28 1.42 1.46 1.44 1.42 1.39 1.47 1.55 1.61 1.66 1.77 1.74 1.65 1.61
0.97 0.85 0.78 0.78 0.83 0.85 0.88 0.86 0.86 0.87 0.88 0.90 0.91 0.92 0.94 0.97 0.98 0.98 0.98 0.92 0.89 0.92 0.92 0.90 0.94 1.01 1.08 1.08 1.05 1.06 1.10 1.09 1.09 1.11 1.11 1.08 1.07 1.06 1.06 1.04 1.06 1.11 1.13 1.20 1.23 1.27 1.31 1.35 1.36 1.35 1.35 1.37 1.35 1.33 1.29 1.25 1.25 1.25 1.34 1.37 1.29 1.28 1.46 1.50 1.33 1.21 1.27 1.31 1.36 1.41 1.32 1.35 1.41 1.35 1.37 1.44 1.44 1.40 1.42 1.49 1.53 1.71 1.73 1.59 1.56
0.97 0.85 0.78 0.78 0.81 0.87 0.89 0.87 0.87 0.88 0.89 0.90 0.91 0.93 0.97 1.04 1.08 1.06 1.01 0.91 0.86 0.90 0.92 0.88 0.89 0.90 0.94 1.01 1.05 1.07 1.10 1.10 1.13 1.14 1.11 1.09 1.07 1.05 1.03 0.99 1.01 1.04 1.13 1.21 1.21 1.24 1.30 1.37 1.41 1.41 1.43 1.43 1.40 1.42 1.39 1.28 1.31 1.28 1.39 1.45 1.38 1.25 1.31 1.49 1.36 1.21 1.22 1.26 1.28 1.32 1.34 1.35 1.46 1.40 1.39 1.44 1.41 1.40 1.44 1.49 1.41 1.42 1.53 1.60 1.64
0.92 0.83 0.81 0.80 0.86 0.90 0.89 0.86 0.87 0.89 0.91 0.92 0.94 0.96 1.04 1.09 1.06 1.00 0.94 0.88 0.85 0.87 0.96 0.94 0.89 0.88 0.93 1.02 1.10 1.11 1.09 1.11 1.14 1.12 1.07 1.06 1.06 1.03 0.99 0.97 1.00 1.05 1.15 1.19 1.17 1.22 1.28 1.37 1.44 1.44 1.45 1.44 1.43 1.44 1.45 1.47 1.41 1.36 1.41 1.47 1.48 1.35 1.33 1.49 1.35 1.20 1.19 1.24 1.28 1.35 1.32 1.34 1.45 1.39 1.26 1.33 1.31 1.29 1.41 1.59 1.53 1.50 1.53 1.60 1.67
0.88 0.82 0.80 0.84 0.89 0.91 0.89 0.89 0.89 0.92 0.94 0.96 0.99 1.00 1.06 1.07 1.00 0.93 0.91 0.90 0.89 0.91 0.94 0.97 0.95 0.95 0.97 1.02 1.09 1.11 1.11 1.15 1.14 1.08 1.05 1.04 1.04 1.03 0.97 0.96 1.02 1.09 1.14 1.12 1.14 1.22 1.29 1.36 1.43 1.44 1.44 1.45 1.42 1.44 1.46 1.46 1.45 1.43 1.44 1.47 1.52 1.45 1.36 1.36 1.25 1.21 1.20 1.18 1.20 1.25 1.28 1.30 1.38 1.40 1.32 1.32 1.41 1.40 1.42 1.49 1.43 1.46 1.46 1.51 1.58
0.88 0.81 0.81 0.85 0.89 0.90 0.90 0.91 0.91 0.90 0.94 0.95 0.98 1.06 1.09 1.01 0.93 0.92 0.93 0.93 0.95 0.99 0.98 0.94 0.96 0.97 0.95 1.00 1.03 1.06 1.11 1.15 1.10 1.05 1.04 1.06 1.06 1.00 0.92 0.94 1.05 1.12 1.12 1.12 1.15 1.21 1.28 1.36 1.39 1.40 1.40 1.39 1.41 1.43 1.41 1.40 1.42 1.44 1.46 1.51 1.61 1.54 1.40 1.30 1.34 1.29 1.28 1.24 1.24 1.23 1.19 1.21 1.30 1.36 1.35 1.35 1.31 1.30 1.38 1.48 1.44 1.47 1.40 1.31 1.24
0.86 0.81 0.83 0.88 0.89 0.90 0.91 0.93 0.93 0.93 0.95 0.95 1.00 1.05 1.05 0.97 0.92 0.92 0.89 0.86 0.89 0.94 0.93 0.96 0.97 0.98 1.01 1.00 0.99 1.04 1.06 1.09 1.05 1.03 1.02 1.04 1.03 0.95 0.90 0.92 1.03 1.09 1.12 1.11 1.16 1.21 1.26 1.31 1.33 1.36 1.36 1.36 1.38 1.40 1.40 1.41 1.41 1.43 1.45 1.48 1.52 1.55 1.55 1.48 1.43 1.39 1.24 1.17 1.21 1.24 1.24 1.25 1.28 1.34 1.37 1.35 1.28 1.25 1.33 1.45 1.46 1.34 1.33 1.35 1.35
0.84 0.81 0.85 0.87 0.89 0.91 0.93 0.92 0.93 0.95 0.95 0.99 1.03 1.00 1.02 0.95 0.93 0.90 0.87 0.87 0.89 0.94 0.96 0.96 0.96 0.97 0.98 0.97 0.94 1.00 1.02 1.06 1.01 0.98 0.98 0.99 0.96 0.89 0.85 0.91 0.99 1.06 1.11 1.13 1.15 1.21 1.25 1.28 1.31 1.32 1.31 1.32 1.34 1.37 1.38 1.39 1.41 1.42 1.45 1.47 1.47 1.47 1.45 1.46 1.52 1.56 1.50 1.27 1.18 1.23 1.30 1.33 1.34 1.40 1.45 1.39 1.35 1.26 1.34 1.46 1.51 1.46 1.41 1.36 1.38
0.82 0.83 0.86 0.89 0.90 0.90 0.90 0.91 0.91 0.94 0.98 1.03 1.02 1.00 1.01 0.94 0.92 0.89 0.89 0.89 0.87 0.88 0.92 0.91 0.90 0.90 0.90 0.90 0.94 0.98 1.05 1.11 1.02 0.98 0.93 0.92 0.89 0.83 0.81 0.86 0.95 1.04 1.11 1.15 1.14 1.20 1.23 1.26 1.24 1.25 1.27 1.27 1.30 1.31 1.33 1.37 1.39 1.40 1.42 1.45 1.46 1.47 1.45 1.45 1.46 1.48 1.47 1.34 1.28 1.27 1.37 1.43 1.42 1.46 1.52 1.48 1.36 1.30 1.35 1.42 1.57 1.48 1.40 1.39 1.50
0.82 0.83 0.83 0.87 0.91 0.93 0.92 0.93 0.93 0.97 1.01 1.02 1.02 1.01 0.97 0.91 0.89 0.89 0.88 0.86 0.87 0.89 0.90 0.89 0.90 0.91 0.93 0.93 0.91 0.90 0.94 0.98 0.95 0.92 0.89 0.89 0.86 0.83 0.83 0.89 0.95 1.01 1.08 1.12 1.15 1.16 1.18 1.23 1.24 1.22 1.23 1.24 1.27 1.30 1.33 1.35 1.37 1.39 1.40 1.40 1.43 1.46 1.48 1.47 1.44 1.41 1.36 1.30 1.28 1.38 1.49 1.60 1.61 1.53 1.50 1.56 1.47 1.51 1.55 1.52 1.62 1.54 1.49 1.53 1.60
0.79 0.81 0.80 0.85 0.91 0.95 0.95 0.95 0.99 1.02 1.01 1.00 1.00 1.00 0.92 0.88 0.85 0.87 0.89 0.89 0.91 0.94 0.96 0.98 1.00 1.00 0.99 0.97 0.93 0.91 0.92 0.93 0.94 0.94 0.91 0.90 0.89 0.86 0.86 0.86 0.91 0.99 1.06 1.10 1.16 1.15 1.16 1.20 1.21 1.17 1.18 1.24 1.26 1.29 1.33 1.36 1.35 1.35 1.36 1.39 1.40 1.43 1.46 1.50 1.56 1.57 1.47 1.38 1.35 1.41 1.54 1.69 1.71 1.65 1.62 1.65 1.69 1.69 1.61 1.69 1.64 1.54 1.46 1.45 1.47
0.76 0.77 0.79 0.86 0.91 0.94 0.97 0.98 0.97 0.97 0.99 0.98 0.97 0.95 0.88 0.84 0.84 0.89 0.89 0.90 0.88 0.88 0.89 0.89 0.95 1.04 1.09 1.13 1.04 1.02 1.00 0.99 0.96 0.95 0.92 0.90 0.87 0.86 0.83 0.84 0.91 1.00 1.04 1.08 1.12 1.17 1.16 1.16 1.15 1.12 1.18 1.25 1.26 1.27 1.30 1.34 1.32 1.32 1.34 1.36 1.39 1.40 1.40 1.51 1.54 1.55 1.57 1.54 1.48 1.49 1.54 1.60 1.62 1.64 1.68 1.69 1.72 1.73 1.63 1.51 1.43 1.49 1.36 1.32 1.42
0.77 0.77 0.82 0.88 0.92 0.97 0.99 0.98 0.94 0.94 0.98 0.98 0.97 0.90 0.88 0.89 0.91 0.99 0.95 0.92 0.96 0.97 0.94 0.90 0.95 1.00 0.95 0.94 1.04 1.11 1.03 1.04 1.03 0.99 0.96 0.92 0.90 0.87 0.86 0.88 0.92 0.99 1.03 1.06 1.09 1.12 1.16 1.17 1.14 1.13 1.19 1.25 1.28 1.24 1.27 1.32 1.29 1.30 1.34 1.36 1.34 1.35 1.40 1.48 1.54 1.53 1.56 1.60 1.59 1.55 1.55 1.59 1.63 1.62 1.69 1.72 1.71 1.71 1.64 1.46 1.45 1.44 1.39 1.41 1.35
0.79 0.79 0.84 0.89 0.95 1.00 1.02 1.00 0.97 0.97 0.96 0.96 0.94 0.91 0.93 0.91 0.87 0.93 0.88 0.89 1.02 1.09 1.02 0.96 1.05 1.11 1.07 1.01 0.98 0.98 1.05 1.13 1.08 1.03 0.99 0.97 0.96 0.96 0.96 0.92 0.91 0.95 0.97 0.97 1.02 1.08 1.13 1.17 1.15 1.17 1.22 1.25 1.29 1.23 1.25 1.30 1.29 1.28 1.32 1.35 1.33 1.32 1.40 1.49 1.51 1.51 1.53 1.54 1.57 1.56 1.50 1.51 1.60 1.66 1.67 1.69 1.69 1.69 1.66 1.63 1.62 1.49 1.39 1.43 1.48
0.85 0.86 0.89 0.91 0.97 1.03 1.03 0.99 0.99 0.98 0.96 0.97 1.00 0.99 0.93 0.86 0.86 0.92 0.90 0.89 0.90 0.93 0.96 0.96 0.95 0.99 1.05 1.09 1.12 1.05 1.06 1.09 1.08 1.05 0.99 1.00 1.01 1.03 1.02 0.96 0.92 0.94 0.97 0.96 0.95 0.99 1.05 1.10 1.12 1.18 1.22 1.25 1.29 1.25 1.27 1.31 1.30 1.29 1.31 1.32 1.32 1.32 1.45 1.49 1.55 1.56 1.55 1.58 1.58 1.57 1.53 1.54 1.56 1.64 1.69 1.70 1.69 1.66 1.63 1.62 1.60 1.56 1.44 1.41 1.49
0.91 0.90 0.95 1.03 1.02 0.99 0.99 1.00 0.99 1.02 1.03 1.05 1.02 0.92 0.88 0.86 0.90 0.96 0.93 0.91 0.94 0.94 0.94 0.96 0.96 0.97 0.98 1.02 1.06 1.09 1.15 0.99 0.96 1.01 1.01 1.02 1.05 1.04 1.05 1.01 0.98 0.97 0.98 0.97 1.00 0.95 0.95 1.02 1.08 1.14 1.19 1.23 1.31 1.28 1.30 1.31 1.32 1.31 1.30 1.33 1.38 1.44 1.52 1.50 1.55 1.60 1.60 1.62 1.60 1.60 1.59 1.58 1.55 1.53 1.55 1.61 1.65 1.69 1.66 1.61 1.58 1.57 1.51 1.44 1.46
0.94 1.01 1.09 1.04 1.00 0.97 0.94 0.97 1.00 1.02 0.94 0.97 0.94 0.90 0.91 0.92 0.89 0.91 0.98 0.99 0.94 0.92 0.94 0.95 0.99 1.00 1.03 1.00 1.04 1.03 1.05 1.12 1.02 1.04 1.02 1.04 1.06 1.07 1.04 1.03 1.01 0.98 0.95 0.95 0.94 0.94 0.94 0.98 1.03 1.09 1.15 1.19 1.31 1.29 1.28 1.28 1.30 1.31 1.30 1.36 1.44 1.50 1.56 1.62 1.61 1.63 1.60 1.61 1.61 1.61 1.60 1.59 1.58 1.58 1.56 1.56 1.61 1.64 1.66 1.64 1.61 1.57 1.58 1.56 1.56
1.10 1.08 1.04 1.03 1.01 0.97 0.94 0.94 0.98 1.06 1.12 1.01 0.90 0.86 0.89 0.89 0.90 0.91 0.93 0.96 0.96 0.94 0.93 0.95 0.98 0.99 1.00 0.98 0.99 1.04 1.06 1.19 1.19 1.09 1.05 1.03 1.03 1.02 1.03 1.03 1.02 1.00 0.94 0.87 0.88 0.92 0.97 0.98 1.01 1.08 1.14 1.14 1.28 1.32 1.27 1.27 1.28 1.28 1.32 1.37 1.45 1.52 1.59 1.64 1.67 1.65 1.65 1.65 1.64 1.63 1.60 1.60 1.58 1.59 1.60 1.59 1.62 1.63 1.64 1.65 1.66 1.62 1.58 1.58 1.65
1.07 1.02 1.03 1.01 0.97 0.93 0.94 0.97 1.01 1.04 1.01 0.97 0.90 0.85 0.89 0.94 0.95 0.96 0.95 0.93 0.95 0.95 0.95 0.96 0.98 0.98 0.97 0.97 0.99 1.01 1.15 1.25 1.04 1.02 1.12 1.11 1.03 0.99 0.99 1.00 1.00 0.99 0.97 0.92 0.92 0.96 0.97 0.97 1.00 1.04 1.09 1.11 1.25 1.32 1.30 1.25 1.25 1.27 1.29 1.35 1.42 1.51 1.55 1.59 1.60 1.64 1.66 1.63 1.66 1.64 1.61 1.61 1.60 1.60 1.61 1.63 1.66 1.71 1.71 1.69 1.65 1.64 1.61 1.63 1.74
0.99 1.03 1.02 0.99 0.97 0.97 0.99 0.99 1.01 1.02 1.00 0.93 0.86 0.84 0.87 0.93 0.95 0.98 0.93 0.92 0.95 0.95 0.96 0.98 0.99 1.01 0.98 0.98 0.95 0.99 1.05 1.13 1.08 0.96 1.00 1.08 1.08 1.04 1.02 1.01 0.99 0.99 0.95 0.93 0.96 0.99 0.99 0.96 0.97 1.02 1.06 1.09 1.20 1.29 1.31 1.26 1.22 1.26 1.31 1.35 1.39 1.46 1.50 1.51 1.53 1.57 1.53 1.55 1.58 1.63 1.65 1.68 1.69 1.70 1.75 1.78 1.77 1.80 1.72 1.66 1.66 1.64 1.68 1.75 1.83
1.00 0.99 0.97 0.97 1.00 1.04 1.03 1.02 1.04 1.02 0.96 0.92 0.89 0.89 0.92 0.96 0.96 0.98 0.97 0.95 0.96 0.97 1.00 1.01 1.00 1.00 0.96 0.96 0.96 0.96 1.07 1.13 1.13 1.11 1.03 1.01 1.02 1.05 1.04 1.01 0.99 0.98 0.96 0.95 0.89 0.88 0.90 0.95 0.98 1.02 1.05 1.09 1.16 1.25 1.29 1.28 1.25 1.24 1.30 1.36 1.39 1.42 1.45 1.45 1.47 1.46 1.45 1.48 1.52 1.54 1.59 1.66 1.73 1.78 1.78 1.73 1.74 1.72 1.67 1.58 1.56 1.56 1.63 1.71 1.73
1.00 0.98 0.97 0.98 1.05 1.05 0.98 0.93 0.94 0.97 0.95 0.94 0.93 0.94 0.97 0.98 0.99 0.99 0.97 0.95 0.95 0.98 1.01 1.04 1.03 1.01 0.97 0.97 1.01 1.04 1.02 1.04 1.01 1.02 1.00 0.97 0.97 1.00 1.02 1.01 0.99 0.98 0.96 0.96 0.93 0.90 0.94 1.05 1.03 1.01 1.04 1.09 1.14 1.24 1.27 1.30 1.27 1.25 1.29 1.33 1.35 1.37 1.39 1.40 1.41 1.41 1.42 1.42 1.47 1.54 1.61 1.63 1.67 1.70 1.68 1.71 1.68 1.71 1.69 1.58 1.53 1.56 1.62 1.71 1.70
0.95 0.93 0.98 1.06 1.09 1.07 1.01 0.97 0.94 0.92 0.93 0.91 0.90 0.92 1.00 0.99 0.97 0.95 0.97 0.99 0.98 0.99 1.03 1.04 1.03 1.00 0.97 0.97 0.98 1.00 0.98 1.01 1.00 0.94 0.93 0.92 0.92 0.95 0.98 0.99 0.97 0.96 0.93 0.92 0.89 0.89 0.97 1.11 1.10 1.05 1.05 1.07 1.10 1.19 1.23 1.27 1.28 1.26 1.26 1.29 1.32 1.34 1.34 1.39 1.43 1.44 1.45 1.47 1.49 1.52 1.55 1.58 1.57 1.56 1.60 1.57 1.58 1.60 1.66 1.63 1.60 1.59 1.67 1.69 1.63
0.92 0.99 1.05 1.05 1.05 1.00 0.98 1.00 0.98 0.93 0.92 0.93 0.92 0.92 0.94 0.95 0.94 0.97 1.11 1.10 1.04 0.99 1.01 1.05 1.05 1.03 1.01 1.01 0.97 0.94 0.94 0.91 0.94 0.97 0.95 0.94 0.91 0.90 0.92 0.95 0.97 0.97 0.97 0.94 0.92 0.91 0.99 1.03 1.01 0.97 0.95 0.95 0.99 1.06 1.17 1.23 1.25 1.25 1.26 1.28 1.29 1.31 1.32 1.31 1.30 1.32 1.36 1.39 1.40 1.42 1.44 1.49 1.52 1.56 1.57 1.55 1.55 1.58 1.69 1.66 1.63 1.64 1.68 1.69 1.61
0.96 1.00 1.05 1.02 1.01 1.00 1.00 0.99 0.96 0.89 0.84 0.83 0.87 0.96 1.00 1.01 1.01 1.03 1.09 1.11 1.08 1.08 1.09 1.06 1.05 1.06 1.05 1.06 1.03 0.93 0.88 0.91 0.95 0.95 0.94 0.93 0.94 0.94 0.95 0.96 0.98 1.00 1.01 0.99 0.98 0.92 0.93 0.91 0.94 0.97 0.95 0.93 0.93 0.97 1.07 1.17 1.19 1.19 1.21 1.26 1.30 1.29 1.30 1.32 1.32 1.31 1.33 1.34 1.35 1.34 1.36 1.39 1.41 1.47 1.52 1.52 1.54 1.58 1.65 1.65 1.63 1.64 1.59 1.62 1.59
0.91 0.92 0.99 0.98 0.96 0.96 0.91 0.87 0.89 0.88 0.87 0.90 0.90 0.91 0.99 1.05 1.09 1.11 1.12 1.10 1.10 1.11 1.12 1.12 1.12 1.11 1.09 1.05 1.03 0.99 0.95 0.93 0.91 0.91 0.93 0.94 0.94 0.94 0.94 0.96 0.99 1.03 1.04 1.01 1.03 0.96 0.88 0.85 0.90 0.98 1.01 0.98 0.94 0.93 0.98 1.05 1.12 1.14 1.17 1.21 1.25 1.26 1.27 1.29 1.31 1.32 1.29 1.29 1.30 1.31 1.32 1.35 1.38 1.41 1.42 1.47 1.47 1.49 1.53 1.57 1.60 1.60 1.58 1.58 1.58
0.90 0.90 0.92 0.95 0.94 0.88 0.85 0.84 0.81 0.82 0.88 0.93 0.95 0.95 0.99 1.01 1.03 1.13 1.16 1.13 1.13 1.14 1.14 1.13 1.12 1.12 1.12 1.07 0.99 0.95 0.93 0.90 0.88 0.88 0.90 0.91 0.93 0.93 0.94 0.97 1.00 1.03 1.05 1.06 0.98 0.93 0.89 0.87 0.87 0.93 0.99 1.00 0.99 0.98 0.97 0.99 1.04 1.08 1.12 1.15 1.17 1.22 1.24 1.22 1.28 1.31 1.29 1.28 1.27 1.28 1.28 1.28 1.31 1.36 1.39 1.42 1.43 1.42 1.41 1.39 1.43 1.48 1.51 1.52 1.53
0.91 0.90 0.90 0.90 0.86 0.85 0.81 0.82 0.84 0.87 0.90 0.93 0.96 0.99 1.02 0.97 0.95 1.02 1.11 1.14 1.15 1.15 1.14 1.13 1.12 1.12 1.09 1.03 0.97 0.92 0.88 0.85 0.81 0.80 0.81 0.84 0.87 0.89 0.91 0.95 0.99 1.03 1.06 1.03 0.99 0.96 0.94 0.90 0.88 0.91 0.94 0.98 1.01 1.00 1.00 0.99 1.00 1.01 1.05 1.09 1.11 1.15 1.23 1.24 1.25 1.27 1.28 1.30 1.29 1.28 1.28 1.27 1.28 1.28 1.29 1.32 1.33 1.31 1.32 1.30 1.30 1.32 1.38 1.40 1.42
0.85 0.81 0.81 0.85 0.85 0.85 0.85 0.89 0.91 0.94 0.97 0.99 1.01 1.03 1.05 1.03 1.01 1.02 1.01 1.06 1.09 1.11 1.13 1.13 1.13 1.10 1.05 1.01 0.97 0.91 0.84 0.79 0.77 0.76 0.78 0.81 0.84 0.85 0.86 0.87 0.91 0.97 1.00 0.99 0.97 0.95 0.95 0.92 0.90 0.90 0.92 0.95 0.98 1.00 1.01 1.00 1.00 1.00 1.01 1.05 1.09 1.12 1.14 1.16 1.16 1.16 1.20 1.26 1.28 1.28 1.29 1.27 1.26 1.24 1.23 1.24 1.25 1.26 1.27 1.30 1.31 1.29 1.29 1.30 1.32
0.81 0.82 0.79 0.80 0.84 0.89 0.92 0.95 0.93 0.92 0.95 0.98 1.01 1.05 1.08 1.10 1.05 1.06 1.07 1.02 1.03 1.02 1.02 1.06 1.08 1.05 1.00 0.97 0.91 0.85 0.80 0.76 0.75 0.75 0.76 0.78 0.81 0.84 0.84 0.83 0.80 0.83 0.88 0.91 0.91 0.89 0.89 0.91 0.91 0.92 0.91 0.91 0.93 0.96 0.97 0.99 1.01 1.01 1.01 1.02 1.03 1.05 1.08 1.09 1.09 1.10 1.12 1.16 1.22 1.24 1.28 1.27 1.27 1.26 1.25 1.21 1.21 1.21 1.24 1.28 1.31 1.32 1.29 1.28 1.27
0.81 0.84 0.86 0.83 0.87 0.93 0.96 0.94 0.95 0.97 0.97 0.98 1.02 1.04 1.09 1.10 1.08 1.09 1.09 1.10 1.07 1.03 1.02 1.02 1.00 0.98 0.95 0.92 0.90 0.86 0.82 0.77 0.75 0.73 0.73 0.74 0.75 0.77 0.73 0.71 0.72 0.74 0.76 0.80 0.82 0.84 0.85 0.87 0.89 0.90 0.91 0.90 0.91 0.91 0.94 0.95 0.98 1.00 1.02 1.02 1.01 1.02 1.04 1.05 1.07 1.07 1.07 1.08 1.09 1.13 1.21 1.25 1.28 1.28 1.28 1.25 1.21 1.21 1.22 1.23 1.25 1.27 1.26 1.25 1.25
0.87 0.91 0.94 0.96 0.97 0.98 0.98 0.98 1.00 1.01 0.99 1.00 1.03 1.04 1.07 1.11 1.12 1.10 1.09 1.07 1.03 1.01 0.97 0.96 0.96 0.94 0.92 0.90 0.90 0.87 0.83 0.78 0.74 0.72 0.71 0.70 0.71 0.71 0.68 0.67 0.67 0.68 0.70 0.72 0.75 0.77 0.78 0.81 0.84 0.85 0.87 0.87 0.88 0.88 0.89 0.91 0.94 0.96 1.00 1.01 1.02 1.02 1.02 1.04 1.05 1.07 1.07 1.04 1.05 1.07 1.09 1.14 1.21 1.22 1.25 1.21 1.17 1.18 1.20 1.21 1.21 1.21 1.23 1.24 1.23
0.89 0.94 0.97 1.01 1.00 1.00 1.00 1.00 1.00 1.00 1.00 1.02 1.03 1.03 1.03 1.03 1.02 1.00 0.96 0.92 0.93 0.93 0.92 0.91 0.87 0.84 0.80 0.81 0.88 0.84 0.79 0.75 0.72 0.70 0.71 0.71 0.70 0.67 0.67 0.66 0.66 0.66 0.67 0.69 0.71 0.72 0.73 0.75 0.77 0.78 0.81 0.83 0.85 0.87 0.87 0.87 0.89 0.93 0.96 0.99 1.02 1.03 1.02 1.05 1.05 1.05 1.06 1.08 1.07 1.05 1.05 1.05 1.07 1.09 1.17 1.18 1.17 1.17 1.16 1.18 1.19 1.17 1.16 1.15 1.16
0.97 0.94 0.98 0.99 0.99 1.01 1.02 1.00 0.99 1.01 1.01 1.01 1.01 1.00 0.96 0.93 0.92 0.93 0.93 0.92 0.91 0.89 0.87 0.84 0.81 0.79 0.78 0.81 0.81 0.82 0.76 0.68 0.63 0.60 0.61 0.64 0.66 0.65 0.64 0.63 0.64 0.65 0.65 0.66 0.67 0.68 0.69 0.70 0.72 0.72 0.72 0.74 0.76 0.79 0.82 0.84 0.85 0.87 0.89 0.89 0.90 0.92 0.94 0.96 0.99 1.01 1.02 1.04 1.06 1.09 1.07 1.07 1.05 1.05 1.06 1.08 1.12 1.16 1.18 1.19 1.18 1.17 1.15 1.13 1.14
0.96 0.96 0.97 0.98 1.01 1.03 1.03 1.00 1.00 1.00 1.01 1.01 1.01 0.99 0.94 0.93 0.93 0.94 0.94 0.93 0.90 0.87 0.83 0.80 0.79 0.77 0.78 0.79 0.77 0.75 0.68 0.65 0.63 0.61 0.58 0.56 0.59 0.60 0.59 0.59 0.61 0.61 0.61 0.63 0.65 0.65 0.65 0.67 0.68 0.68 0.69 0.69 0.69 0.70 0.72 0.74 0.77 0.81 0.83 0.85 0.85 0.86 0.88 0.90 0.92 0.95 0.97 1.01 1.02 1.04 1.05 1.05 1.07 1.06 1.06 1.05 1.03 1.06 1.10 1.15 1.17 1.17 1.17 1.17 1.16
1.00 1.02 1.01 1.02 1.03 1.02 1.02 1.01 1.01 1.02 1.03 1.02 0.98 0.96 0.94 0.95 0.96 0.96 0.93 0.90 0.86 0.83 0.81 0.79 0.78 0.77 0.78 0.78 0.78 0.76 0.67 0.66 0.66 0.62 0.57 0.56 0.57 0.54 0.51 0.52 0.55 0.56 0.57 0.58 0.59 0.61 0.61 0.61 0.61 0.62 0.62 0.63 0.65 0.65 0.66 0.68 0.69 0.70 0.72 0.75 0.77 0.79 0.82 0.85 0.87 0.89 0.92 0.95 0.98 0.99 0.99 0.99 1.02 1.03 1.01 1.03 1.06 1.05 1.02 1.04 1.07 1.12 1.13 1.11 1.12
0.99 1.00 1.01 1.02 1.03 1.03 1.02 1.02 1.04 1.04 1.04 1.00 0.98 0.97 0.97 0.96 0.95 0.91 0.87 0.84 0.82 0.80 0.78 0.76 0.75 0.73 0.74 0.74 0.72 0.70 0.69 0.68 0.65 0.60 0.56 0.57 0.56 0.53 0.51 0.50 0.54 0.55 0.56 0.54 0.54 0.54 0.55 0.56 0.55 0.56 0.56 0.56 0.57 0.58 0.58 0.58 0.59 0.60 0.61 0.63 0.66 0.68 0.71 0.74 0.78 0.82 0.85 0.87 0.89 0.92 0.94 0.96 0.97 0.97 0.99 1.03 1.05 1.07 1.06 1.03 1.01 1.00 0.99 1.04 1.05
1.01 1.01 1.01 1.03 1.03 1.02 1.01 1.02 1.03 1.02 0.99 0.97 0.96 0.97 0.97 0.96 0.93 0.90 0.86 0.82 0.80 0.78 0.76 0.73 0.71 0.69 0.69 0.67 0.67 0.66 0.63 0.62 0.60 0.56 0.55 0.56 0.56 0.54 0.52 0.50 0.51 0.52 0.52 0.52 0.51 0.50 0.48 0.49 0.50 0.51 0.51 0.52 0.53 0.53 0.52 0.52 0.53 0.53 0.53 0.54 0.55 0.57 0.59 0.61 0.65 0.68 0.71 0.75 0.79 0.83 0.86 0.89 0.91 0.92 0.93 0.93 0.96 0.98 1.01 1.04 1.04 1.04 1.04 0.99 1.01
1.02 1.03 1.03 1.02 1.02 1.01 1.02 1.01 0.99 0.98 0.94 0.96 0.96 0.95 0.94 0.91 0.89 0.85 0.81 0.80 0.78 0.76 0.72 0.69 0.66 0.65 0.64 0.64 0.64 0.61 0.58 0.58 0.55 0.56 0.56 0.55 0.53 0.50 0.48 0.46 0.46 0.48 0.48 0.49 0.50 0.49 0.46 0.45 0.45 0.47 0.48 0.47 0.48 0.48 0.46 0.47 0.47 0.46 0.46 0.46 0.47 0.47 0.47 0.50 0.53 0.56 0.59 0.62 0.66 0.68 0.71 0.76 0.80 0.82 0.84 0.87 0.89 0.90 0.91 0.94 0.97 1.00 1.06 1.07 1.06
1.02 1.00 0.99 0.98 0.98 0.97 0.97 0.96 0.93 0.94 0.95 0.94 0.92 0.91 0.90 0.87 0.85 0.83 0.80 0.77 0.75 0.71 0.67 0.65 0.64 0.63 0.62 0.59 0.58 0.56 0.53 0.54 0.55 0.53 0.52 0.50 0.49 0.49 0.49 0.47 0.46 0.46 0.47 0.48 0.49 0.48 0.47 0.46 0.44 0.42 0.41 0.40 0.40 0.39 0.38 0.39 0.40 0.39 0.39 0.38 0.38 0.39 0.40 0.43 0.46 0.48 0.50 0.53 0.56 0.60 0.63 0.64 0.66 0.68 0.71 0.76 0.81 0.84 0.86 0.87 0.89 0.92 0.94 0.98 1.01
0.95 0.94 0.92 0.90 0.89 0.90 0.89 0.89 0.89 0.88 0.87 0.85 0.83 0.82 0.83 0.83 0.83 0.80 0.77 0.73 0.69 0.65 0.63 0.61 0.59 0.57 0.55 0.53 0.51 0.49 0.48 0.49 0.50 0.50 0.49 0.48 0.47 0.45 0.45 0.44 0.43 0.43 0.42 0.41 0.41 0.40 0.38 0.38 0.38 0.37 0.35 0.34 0.33 0.32 0.32 0.32 0.32 0.32 0.31 0.30 0.29 0.30 0.31 0.33 0.37 0.38 0.40 0.43 0.45 0.50 0.54 0.56 0.57 0.59 0.63 0.66 0.68 0.72 0.77 0.82 0.85 0.86 0.88 0.91 0.95
0.90 0.88 0.86 0.85 0.85 0.85 0.85 0.84 0.84 0.83 0.82 0.81 0.80 0.78 0.77 0.77 0.77 0.75 0.71 0.66 0.61 0.58 0.54 0.51 0.48 0.46 0.45 0.45 0.44 0.44 0.43 0.42 0.42 0.41 0.42 0.44 0.44 0.42 0.40 0.40 0.39 0.38 0.36 0.35 0.35 0.34 0.33 0.33 0.32 0.31 0.30 0.30 0.31 0.30 0.29 0.28 0.28 0.27 0.27 0.25 0.24 0.25 0.25 0.27 0.30 0.31 0.32 0.36 0.39 0.41 0.44 0.46 0.48 0.51 0.53 0.56 0.58 0.62 0.65 0.69 0.74 0.79 0.82 0.84 0.86
0.87 0.85 0.84 0.83 0.82 0.81 0.81 0.81 0.79 0.78 0.78 0.76 0.74 0.72 0.71 0.71 0.70 0.66 0.61 0.56 0.53 0.50 0.47 0.46 0.44 0.42 0.41 0.40 0.41 0.40 0.40 0.40 0.40 0.40 0.39 0.38 0.39 0.39 0.38 0.36 0.33 0.32 0.31 0.30 0.29 0.29 0.28 0.28 0.27 0.27 0.27 0.27 0.27 0.27 0.26 0.25 0.24 0.23 0.22 0.21 0.21 0.20 0.20 0.20 0.22 0.23 0.25 0.29 0.32 0.32 0.32 0.33 0.34 0.36 0.39 0.42 0.45 0.50 0.53 0.56 0.61 0.67 0.73 0.78 0.81
0.85 0.83 0.81 0.79 0.77 0.75 0.74 0.73 0.72 0.70 0.69 0.68 0.65 0.62 0.61 0.58 0.57 0.54 0.53 0.52 0.49 0.46 0.43 0.40 0.39 0.38 0.38 0.38 0.38 0.37 0.37 0.36 0.35 0.35 0.34 0.34 0.34 0.32 0.31 0.28 0.27 0.27 0.26 0.26 0.26 0.26 0.26 0.25 0.24 0.23 0.23 0.23 0.22 0.23 0.22 0.21 0.20 0.20 0.19 0.19 0.19 0.18 0.18 0.18 0.19 0.20 0.21 0.26 0.27 0.26 0.26 0.27 0.27 0.27 0.28 0.28 0.31 0.34 0.37 0.42 0.47 0.53 0.59 0.66 0.73
0.73 0.72 0.70 0.67 0.65 0.63 0.63 0.61 0.59 0.57 0.56 0.55 0.52 0.51 0.50 0.49 0.48 0.47 0.47 0.45 0.42 0.39 0.39 0.38 0.37 0.37 0.36 0.35 0.34 0.34 0.34 0.33 0.32 0.31 0.29 0.29 0.29 0.28 0.26 0.25 0.24 0.24 0.24 0.24 0.24 0.24 0.25 0.25 0.25 0.23 0.22 0.22 0.22 0.23 0.23 0.21 0.20 0.20 0.19 0.18 0.18 0.19 0.18 0.18 0.19 0.20 0.21 0.23 0.26 0.26 0.25 0.26 0.26 0.25 0.24 0.23 0.26 0.25 0.25 0.27 0.30 0.35 0.40 0.47 0.55
0.63 0.61 0.60 0.58 0.57 0.57 0.56 0.54 0.53 0.52 0.51 0.49 0.48 0.46 0.45 0.44 0.43 0.42 0.40 0.38 0.37 0.37 0.37 0.37 0.36 0.35 0.34 0.33 0.32 0.31 0.31 0.31 0.30 0.28 0.27 0.27 0.26 0.26 0.24 0.23 0.23 0.24 0.24 0.24 0.24 0.24 0.24 0.25 0.25 0.25 0.24 0.24 0.24 0.24 0.24 0.23 0.21 0.20 0.20 0.20 0.19 0.19 0.19 0.18 0.20 0.20 0.22 0.23 0.26 0.26 0.25 0.25 0.25 0.25 0.23 0.21 0.23 0.24 0.23 0.24 0.24 0.25 0.26 0.28 0.32
Wind_Speed
22 23 23 23 23 22 21 21 21 21 21 22 23 23 23 24 24 24 24 25 25 25 25 25 25 25 25 24 25 25 25 25 25 25 25 26 26 27 27 27 28 29 30 30 31 33 34 35 36 36 37 37 37 38 39 39 40 40 40 41 41 40 41 41 40 39 39 38 38 38 36 34 32 32 32 32 32 32 32 32 32 31 31 32 32
22 23 24 23 23 22 22 21 21 21 22 22 23 23 23 24 24 25 25 25 25 26 26 26 25 25 25 25 25 25 26 25 25 25 25 26 27 27 27 27 29 29 30 30 31 32 34 35 36 37 38 38 38 38 39 39 40 40 40 40 41 41 40 41 41 39 39 39 38 39 38 37 35 34 34 33 33 33 33 32 32 32 31 31 31
22 23 24 24 23 23 22 21 21 22 22 23 23 24 24 24 25 25 26 26 26 27 27 26 26 26 26 26 25 25 26 26 25 25 26 26 27 26 27 28 28 29 29 30 31 32 33 34 35 35 36 38 38 38 38 39 40 41 40 40 41 41 39 40 40 40 39 38 38 37 38 37 36 36 35 35 34 34 33 33 32 32 31 30 30
23 24 24 24 23 23 22 22 22 22 22 23 24 24 25 25 26 26 26 27 27 27 27 27 27 26 26 26 26 26 26 26 26 26 26 27 27 27 27 27 28 28 29 30 31 31 32 33 34 35 35 37 37 37 37 38 39 40 41 40 41 40 39 39 40 40 40 39 39 38 37 37 36 35 35 35 34 34 34 34 33 32 32 31 30
24 24 25 24 23 23 22 22 22 23 23 24 24 25 26 26 26 26 27 27 28 28 28 28 27 27 26 26 26 26 26 27 27 27 27 27 27 27 28 28 28 28 29 30 30 31 31 31 32 33 34 35 36 37 37 38 38 40 40 40 41 40 39 40 41 41 41 40 40 38 38 38 36 36 36 35 34 34 34 34 33 33 32 32 31
24 25 25 24 23 23 23 23 23 23 24 24 25 26 26 27 27 27 27 28 29 29 29 28 28 27 27 27 27 27 27 27 27 28 27 27 27 27 28 28 28 28 29 29 30 30 30 30 29 30 32 33 34 36 37 37 38 39 40 40 40 41 40 40 41 41 41 41 40 39 39 38 37 37 37 36 35 35 34 34 34 33 33 32 31
25 25 25 24 24 23 23 23 24 24 24 25 25 26 27 27 27 28 28 29 29 29 29 29 28 28 27 28 28 28 27 27 28 28 27 27 27 27 27 27 27 27 28 29 29 29 29 28 27 27 28 30 31 33 35 36 36 37 38 39 40 41 40 40 40 41 41 41 40 39 39 39 38 37 37 37 36 36 36 35 34 34 33 33 31
25 25 25 24 24 24 24 24 24 25 25 25 26 27 27 28 28 28 29 29 29 29 29 29 28 28 28 28 29 28 28 27 27 27 26 26 26 27 27 26 26 27 28 28 28 29 28 26 24 24 25 26 27 28 31 33 34 36 36 37 39 41 41 40 41 41 40 40 40 39 39 38 38 37 37 37 36 37 36 35 35 35 34 34 33
25 25 25 25 24 24 24 24 25 25 26 26 26 27 28 28 29 29 29 29 29 29 29 29 28 28 28 28 29 28 27 27 26 26 25 25 26 26 26 26 26 26 27 27 28 29 27 23 22 22 22 23 24 25 27 29 32 34 35 35 37 40 40 40 41 41 40 40 39 39 39 39 38 37 37 37 36 36 35 35 35 35 35 34 33
25 25 25 25 25 25 24 24 25 26 26 26 27 27 28 29 29 29 29 29 29 29 29 29 28 28 28 28 28 28 27 26 25 25 25 25 25 25 25 25 25 25 25 27 27 28 26 22 20 20 20 21 21 22 25 27 29 32 34 34 35 38 40 40 40 41 40 40 40 39 39 39 39 38 38 37 37 36 35 35 35 35 35 35 33
26 26 25 25 25 25 25 25 26 26 26 27 27 28 29 29 29 29 29 29 29 29 29 29 28 28 28 28 28 27 26 25 24 24 24 24 24 24 24 24 24 24 24 26 26 27 26 22 20 19 19 20 20 21 23 25 26 29 33 34 35 37 38 39 39 40 40 40 40 40 40 40 40 39 38 37 37 37 36 36 36 35 35 34 34
26 26 25 25 26 26 25 26 26 26 27 28 28 28 29 29 29 29 29 29 29 29 29 29 28 28 28 27 27 26 25 24 23 23 23 23 23 23 23 23 23 23 23 25 25 26 25 22 19 18 19 19 19 20 22 23 25 27 30 33 35 37 39 39 39 39 40 41 40 40 40 40 40 39 38 37 37 37 37 37 36 36 35 35 35
26 26 26 26 26 26 26 26 26 27 28 28 28 29 29 29 29 29 29 29 29 29 29 29 28 28 27 26 25 24 23 22 22 22 22 22 22 22 22 23 22 22 22 23 24 25 25 23 20 18 18 18 19 20 21 23 24 26 28 31 34 36 39 41 41 40 40 41 41 40 40 40 39 39 39 38 37 37 37 37 36 36 36 35 35
26 26 26 26 25 26 26 26 27 27 28 28 29 29 29 29 29 29 29 29 29 29 28 28 28 27 27 25 24 23 22 21 21 21 21 21 21 21 22 22 22 22 22 22 23 25 25 24 22 20 18 18 19 20 21 23 24 25 27 29 32 35 38 40 42 42 42 41 41 41 40 40 39 39 39 38 38 38 37 37 36 36 36 36 35
26 25 25 25 25 26 26 27 27 28 28 28 28 28 28 28 28 28 28 29 29 28 28 28 28 27 26 24 23 22 21 20 20 20 20 21 21 21 22 22 21 21 22 22 23 25 25 24 23 22 20 19 19 20 21 23 25 26 27 28 30 33 36 39 41 42 42 42 42 42 41 40 39 39 39 38 38 38 37 37 36 36 36 36 36
25 25 25 25 26 26 27 27 28 28 28 28 28 28 28 28 29 29 29 29 29 28 28 28 27 26 24 23 22 21 20 20 20 20 20 20 20 21 22 22 21 21 21 22 22 24 25 24 23 23 22 21 21 21 21 22 24 25 27 28 30 32 35 37 40 41 41 41 43 43 42 41 39 39 39 38 37 37 37 37 36 36 36 36 36
25 24 25 25 26 27 27 28 28 28 28 28 28 28 28 29 29 29 29 29 29 28 28 27 26 24 23 22 22 21 21 20 20 19 19 20 20 21 22 22 21 21 22 22 22 23 24 24 24 23 21 21 21 21 22 22 23 24 26 28 29 31 33 35 37 39 40 41 42 43 43 42 40 40 40 39 38 36 37 37 37 36 36 36 36
24 24 25 25 26 27 27 28 28 28 28 28 28 28 28 29 29 29 29 29 28 27 27 27 25 23 22 22 22 22 22 21 19 19 19 19 20 21 22 22 21 21 22 22 22 23 24 24 24 23 21 20 20 20 21 22 23 23 25 26 28 29 31 33 34 36 38 39 41 42 42 43 42 41 41 40 39 38 37 37 37 37 37 36 36
24 24 25 26 27 27 27 28 28 29 29 29 28 28 28 29 30 30 29 29 28 27 27 27 25 24 23 22 22 22 21 20 19 18 19 19 19 20 21 21 21 21 22 22 22 22 23 23 24 23 21 20 20 19 19 21 22 22 23 24 25 26 28 31 33 34 36 37 38 40 41 42 42 42 42 41 40 40 39 38 37 37 38 38 37
24 25 26 26 27 27 27 28 28 29 29 29 28 28 29 30 30 30 29 29 28 28 28 26 25 24 23 22 22 21 20 20 19 19 18 18 18 19 20 21 21 21 21 21 22 22 22 22 23 23 22 20 20 19 19 18 19 20 20 20 22 24 27 30 33 34 34 35 36 37 39 40 41 42 42 42 41 41 41 40 39 38 38 39 39
26 26 26 26 27 28 28 28 28 29 30 30 29 29 30 30 30 30 30 29 28 28 27 25 24 23 22 22 21 20 20 20 19 18 18 18 17 18 19 20 20 20 21 21 21 20 21 21 22 22 22 20 19 19 18 17 17 17 17 18 18 20 24 28 30 32 33 33 34 35 36 38 39 40 41 42 42 42 41 40 40 39 39 39 40
27 27 26 27 28 28 28 29 28 29 30 30 30 30 30 30 31 31 30 29 28 27 26 24 23 22 21 21 20 20 20 20 19 17 17 17 17 17 18 19 19 20 20 20 20 19 20 20 20 21 21 20 19 18 17 16 15 14 15 15 15 15 18 23 27 29 31 32 32 33 34 35 36 38 39 40 41 41 41 40 40 40 39 39 39
28 27 27 27 28 28 29 29 29 29 30 30 30 30 30 30 30 30 30 29 28 26 25 23 22 21 21 20 20 19 19 18 17 17 17 17 17 17 17 18 19 19 19 19 19 19 18 19 19 19 20 19 18 18 17 15 14 14 14 13 12 10 11 16 22 26 28 30 31 31 32 33 34 35 36 37 38 39 40 39 39 39 39 39 39
27 27 28 28 28 29 29 29 29 29 30 30 30 30 30 30 30 29 29 28 27 26 24 22 21 21 20 19 19 19 18 17 17 17 17 17 17 17 17 18 18 18 19 19 18 18 18 18 18 18 18 18 17 17 16 16 14 14 14 11 8 6 5 8 14 18 22 26 28 30 31 32 33 33 34 35 36 37 38 38 38 38 38 38 38
27 28 28 28 28 28 28 28 28 29 29 30 30 30 30 31 30 29 28 27 26 25 23 21 20 20 19 18 18 18 17 17 16 16 16 17 18 17 17 17 17 17 18 18 18 18 17 17 17 17 16 16 16 15 15 15 16 15 13 10 6 3 2 4 7 11 14 17 21 24 26 28 31 32 32 33 35 36 36 37 37 37 36 36 36
27 27 27 27 27 27 28 28 28 29 29 30 30 30 30 30 29 28 27 26 25 23 21 20 19 19 19 18 18 17 17 16 16 16 16 17 17 17 17 17 16 17 17 17 17 17 17 17 16 15 14 15 15 15 14 13 15 16 15 10 6 3 1 1 4 7 10 11 13 16 19 21 24 26 28 30 32 32 34 34 34 35 35 34 34
26 26 26 26 26 27 28 27 28 29 29 29 30 30 30 29 27 27 27 26 24 22 20 19 18 18 18 18 17 17 16 15 16 16 17 17 17 17 16 16 16 16 16 16 16 17 16 15 14 13 13 13 14 14 13 13 13 15 15 13 9 6 4 3 3 5 7 8 9 11 14 16 18 20 23 25 27 28 30 32 32 32 33 32 32
25 25 25 25 26 27 28 28 28 29 29 30 30 30 29 28 27 28 27 25 23 21 19 18 17 17 17 16 16 16 15 15 16 17 18 17 17 16 16 15 15 15 16 16 16 16 16 14 13 13 12 12 13 13 12 12 12 13 14 13 11 8 6 4 3 4 5 6 7 8 9 11 13 15 18 20 22 24 26 29 30 30 31 31 31
24 25 25 25 26 27 27 28 28 29 30 30 30 29 29 28 29 29 27 24 22 20 18 17 17 16 16 15 15 15 15 15 16 17 18 17 17 16 15 15 15 15 15 16 16 15 14 13 13 13 12 12 12 12 11 12 12 12 12 12 11 10 8 6 4 3 4 5 6 7 7 8 9 12 14 16 18 20 23 25 27 28 28 28 28
25 26 26 26 27 27 27 28 28 29 29 29 28 27 27 28 28 27 24 21 19 18 16 16 16 15 14 13 13 14 14 15 17 17 17 16 15 14 15 15 15 15 15 15 14 14 13 13 13 13 12 11 11 11 11 11 11 12 12 11 11 10 8 7 6 5 3 2 3 5 6 6 7 8 11 13 15 17 20 22 23 24 25 26 26
25 26 26 26 26 27 27 28 28 27 27 26 26 26 25 25 25 22 18 16 15 15 14 14 13 13 12 12 12 13 14 15 16 16 15 14 14 13 14 14 14 14 14 13 13 13 13 13 13 13 12 11 11 11 10 10 10 11 11 10 10 9 8 7 7 6 5 4 2 2 5 6 7 6 8 10 11 13 16 19 21 22 22 24 24
25 25 26 26 26 26 27 27 26 26 25 25 25 25 24 23 21 17 15 13 13 12 12 12 11 11 11 11 12 12 13 14 15 15 14 13 13 13 13 13 13 13 13 12 12 12 12 12 12 12 11 11 10 10 10 10 10 10 10 10 9 9 8 7 6 6 5 5 5 4 4 4 6 6 7 9 9 10 12 15 17 19 20 20 21
25 25 25 25 25 25 26 25 25 24 24 24 24 23 22 21 17 14 12 12 11 11 11 11 11 10 10 10 11 12 13 14 14 14 13 13 12 12 12 12 12 12 12 11 11 12 11 11 11 11 11 10 10 9 9 9 9 9 9 9 9 8 7 7 6 5 5 4 4 4 4 3 3 4 6 8 8 9 10 12 14 16 18 19 19
24 24 24 24 24 24 24 23 23 22 22 22 22 21 20 18 15 12 11 10 10 10 10 10 10 10 10 10 11 12 13 14 13 13 13 12 12 12 12 11 11 11 11 11 11 11 11 11 10 10 10 10 10 9 9 8 8 9 8 8 8 8 8 7 7 6 5 4 3 3 3 3 2 3 4 6 7 8 9 10 12 14 15 17 18
24 24 24 24 23 23 22 21 21 21 21 21 20 19 18 16 13 11 10 10 10 10 9 9 9 9 10 11 12 12 13 13 13 13 13 12 12 12 12 11 11 11 10 10 10 10 10 10 10 9 9 10 10 9 9 8 8 8 8 8 8 9 8 8 7 6 5 3 2 2 2 2 2 2 2 4 5 6 7 9 10 11 13 15 16
23 23 22 22 21 20 20 20 20 20 19 19 18 17 15 13 12 11 10 10 10 10 10 10 10 11 11 12 12 12 12 12 12 12 12 12 12 12 11 11 11 10 10 9 9 9 9 9 9 9 9 9 10 9 9 9 8 8 8 8 8 8 8 8 8 7 5 4 2 2 2 2 1 1 1 1 2 3 4 6 8 10 11 13 14
22 22 21 20 19 19 19 19 19 18 18 17 16 15 13 12 11 11 10 10 10 10 10 11 11 12 12 13 13 13 12 12 12 12 12 12 12 12 11 11 10 10 10 9 9 9 9 9 9 9 9 9 9 10 10 9 9 9 8 8 8 8 8 8 8 7 7 5 4 3 2 2 2 2 2 3 3 3 3 4 6 7 9 11 13
21 21 20 19 18 18 18 18 17 17 16 16 15 13 12 11 10 10 10 10 10 11 11 12 12 13 13 13 13 13 12 12 12 12 12 12 11 11 11 11 10 9 9 9 9 8 8 8 8 8 9 9 9 10 10 10 10 10 9 9 8 8 8 8 8 7 7 6 6 5 4 3 3 3 3 4 4 4 4 5 6 7 8 9 11
20 20 19 18 18 18 18 17 17 16 16 15 14 12 11 11 11 11 11 11 11 12 12 13 13 13 14 14 14 14 13 13 13 12 12 12 11 11 11 11 10 9 9 9 9 9 9 9 9 9 9 9 9 10 10 10 10 10 10 9 9 9 9 8 8 8 7 7 6 6 5 4 4 3 4 4 4 5 5 6 6 7 8 9 10
19 19 19 19 18 17 17 17 16 15 14 14 13 12 12 11 11 12 12 12 12 13 13 13 14 14 14 14 14 14 14 14 13 13 13 12 12 12 12 11 11 10 10 10 10 10 10 10 11 10 10 10 10 10 10 10 10 10 10 10 10 10 9 9 9 8 8 7 7 7 6 6 5 5 5 5 5 5 6 6 7 7 8 9 9
18 18 18 18 17 17 16 16 15 14 13 13 13 12 12 12 13 13 13 14 14 14 14 14 14 14 14 14 14 15 14 13 13 13 13 13 12 12 12 12 11 11 11 11 12 12 12 12 12 12 12 12 12 11 11 11 11 11 11 11 11 10 10 10 9 9 9 8 8 8 8 8 7 7 7 6 6 6 6 7 7 7 8 9 9
18 17 17 17 16 16 16 15 14 13 13 13 13 13 13 14 14 15 15 15 15 15 15 15 14 14 14 14 14 14 14 14 13 13 14 13 13 12 12 12 12 12 12 12 12 13 13 13 13 13 13 13 13 13 13 13 13 12 12 12 12 12 11 11 11 11 10 10 9 9 9 9 9 8 8 8 8 8 8 8 8 8 8 8 9
17 16 16 16 16 15 15 14 14 14 14 14 14 14 15 15 16 17 17 16 16 16 15 15 15 14 14 15 15 15 15 14 14 14 13 13 13 13 13 13 13 13 13 13 13 13 13 14 14 14 14 14 15 15 14 14 14 14 14 14 14 13 13 13 13 13 12 12 12 11 11 10 10 10 10 10 10 10 10 10 10 9 9 9 9
16 16 16 16 16 15 15 15 15 15 16 16 16 16 17 17 17 17 17 17 17 16 16 16 15 15 15 15 15 15 14 14 14 13 13 13 13 13 14 14 14 14 14 14 14 14 14 15 15 15 15 15 15 16 16 16 15 15 15 15 15 15 15 15 15 14 14 14 14 13 13 12 12 12 12 12 12 11 11 11 11 11 11 11 11
16 16 16 15 15 15 15 15 16 16 17 17 17 17 17 17 17 17 17 17 16 16 16 16 15 15 15 15 14 14 14 14 14 14 14 14 14 14 15 15 15 15 15 15 15 15 15 15 15 15 16 16 16 16 16 16 16 16 16 16 16 16 16 16 16 16 15 15 15 15 15 14 14 14 14 13 13 13 13 13 13 13 13 13 13
15 15 15 15 15 15 15 16 16 16 16 17 17 17 17 17 17 17 16 16 16 16 16 15 15 15 15 14 14 14 14 14 14 14 15 15 15 15 15 15 15 15 15 16 16 16 16 15 15 16 16 16 16 16 16 16 16 16 17 17 17 17 17 18 18 17 17 17 16 16 16 16 16 15 15 15 15 15 15 15 15 14 15 15 15
15 15 15 15 15 16 16 16 16 17 17 16 17 17 17 17 16 16 16 16 16 15 15 15 15 15 14 14 14 14 14 14 14 15 15 15 15 15 15 15 15 15 15 15 15 15 15 15 15 15 15 15 15 15 15 15 16 16 16 17 17 17 18 18 18 18 18 18 18 18 17 17 17 17 16 16 16 16 16 16 16 16 16 16 16
15 16 16 16 16 16 17 17 17 17 17 17 16 16 16 16 16 16 16 16 16 15 15 15 14 14 14 14 14 14 15 15 15 15 15 15 15 15 15 15 15 15 15 15 15 14 14 14 14 14 15 15 15 15 15 15 15 15 16 16 17 17 17 18 18 18 18 18 18 18 18 18 18 18 18 18 18 18 18 18 18 18 18 18 18
16 16 16 17 17 17 17 17 17 17 17 17 17 16 16 16 16 16 16 16 16 16 15 15 14 14 14 14 14 14 14 14 14 14 14 14 15 15 15 15 15 14 14 15 15 15 14 14 14 14 15 15 15 15 15 15 15 15 15 16 16 17 17 17 17 17 17 17 17 17 17 18 18 18 18 18 19 19 19 19 19 19 19 19 19
17 17 17 17 17 17 17 17 17 17 17 17 17 17 16 16 16 17 16 16 16 16 15 15 15 15 14 14 14 14 14 14 14 14 14 15 15 15 15 15 15 15 15 15 15 15 15 15 15 15 15 15 15 15 15 15 16 16 16 16 16 17 17 17 17 17 17 17 17 17 17 17 17 17 18 18 18 18 19 19 19 19 20 20 20
17 17 17 17 17 18 17 17 17 17 17 17 17 16 16 16 16 16 16 16 16 15 15 15 15 15 15 15 15 15 15 15 15 15 15 15 15 15 15 15 15 15 15 15 15 15 15 16 16 16 16 16 16 16 16 16 17 17 17 17 17 17 17 17 17 17 18 18 17 17 17 17 17 17 17 18 18 18 18 19 19 19 20 20 20
Wind_Direction
318 319 319 317 316 315 313 312 311 311 312 313 314 315 316 317 317 316 316 315 315 315 315 315 315 313 311 310 309 310 311 311 309 307 305 305 305 304 303 301 300 298 297 294 289 283 277 272 268 264 261 259 256 254 251 248 245 244 242 242 242 242 241 240 240 240 239 239 240 240 241 242 241 239 239 241 240 240 240 239 237 237 236 237 238
316 317 317 316 315 314 312 311 310 310 311 312 313 314 315 315 315 315 315 315 315 315 315 315 315 313 311 309 308 309 309 310 309 308 306 306 306 305 303 302 302 300 299 297 294 289 282 275 270 266 262 258 256 255 252 248 245 243 242 241 241 241 241 239 238 239 239 239 240 241 240 241 242 241 240 240 241 240 239 239 237 236 236 236 237
312 315 315 315 313 312 312 311 310 309 310 311 313 314 314 314 314 313 313 314 314 314 313 314 314 313 311 309 308 308 308 308 309 308 308 308 307 306 305 304 303 303 301 300 299 295 288 279 273 268 264 259 256 254 251 248 245 243 242 240 239 239 240 238 236 237 237 238 239 240 240 240 241 241 240 240 240 239 238 238 237 235 234 235 236
310 312 313 313 312 311 310 310 310 309 309 311 311 313 314 314 314 313 313 313 313 313 312 312 312 311 311 309 308 307 307 307 308 308 308 309 309 307 305 304 304 305 305 305 303 300 294 285 276 270 266 261 256 253 250 248 246 243 242 241 238 238 239 237 235 236 236 237 239 240 240 239 240 240 239 239 239 238 237 237 236 235 234 235 236
308 310 311 311 310 309 309 309 309 308 309 309 310 312 313 314 314 313 313 314 313 312 311 311 310 310 309 308 307 307 306 306 306 307 308 309 309 308 307 305 306 307 307 308 307 304 299 291 280 272 266 262 257 253 249 247 246 243 242 241 238 237 239 238 236 236 236 238 239 240 239 239 239 239 238 237 237 237 237 237 236 235 235 235 236
306 309 310 309 308 308 308 309 308 308 308 309 310 311 312 312 312 313 314 314 313 312 311 311 309 308 307 307 306 305 305 305 305 306 307 308 309 309 308 307 307 308 309 309 308 306 303 296 285 275 268 263 259 254 249 247 245 243 242 241 238 237 238 238 236 236 236 237 238 239 238 237 237 238 238 237 236 237 237 237 236 235 235 235 236
305 307 308 308 308 308 308 308 308 309 309 309 309 310 310 311 312 312 313 313 313 312 311 310 309 307 306 305 304 304 303 304 305 305 306 307 308 310 310 309 310 310 311 312 311 310 307 301 290 279 270 265 262 256 250 246 244 243 242 241 238 237 237 237 236 235 235 236 236 237 237 236 236 237 237 237 236 236 237 237 236 236 235 235 236
303 305 306 307 307 308 308 308 308 309 309 309 309 310 309 310 311 311 312 312 313 312 311 310 308 306 305 304 303 303 302 302 304 305 305 305 307 309 311 311 311 313 314 314 314 314 312 305 297 285 274 268 264 257 250 247 244 242 242 241 239 237 236 237 236 234 234 234 234 235 235 235 235 236 236 235 235 235 236 237 237 235 235 235 235
301 303 305 306 307 307 307 308 308 309 308 309 309 309 309 309 310 311 312 312 312 311 310 310 308 305 305 304 303 302 301 301 302 304 304 304 306 309 311 311 312 314 315 316 318 319 315 307 301 293 280 272 265 257 251 248 245 243 243 242 240 236 235 236 236 235 234 233 232 233 233 234 234 235 234 234 234 235 235 235 235 234 233 234 234
300 302 303 304 306 306 306 307 308 308 308 308 309 309 310 310 310 311 312 312 312 311 311 310 308 306 305 305 303 302 301 300 301 302 302 302 306 309 310 311 312 314 316 318 320 322 319 309 302 298 286 276 268 259 253 251 249 246 244 243 241 237 236 236 236 234 233 233 232 233 233 233 233 233 234 234 234 235 233 233 233 233 233 234 234
299 301 302 303 305 305 305 306 307 307 307 308 308 309 310 310 310 311 312 312 311 311 311 310 308 307 306 305 304 302 301 300 300 301 300 302 306 309 310 311 312 313 318 321 322 325 324 314 303 299 291 281 272 264 258 256 254 250 246 244 242 238 235 235 234 233 233 233 233 233 233 234 234 233 233 234 234 234 233 232 232 233 233 233 234
298 300 301 302 304 304 305 305 306 306 307 307 308 309 310 310 310 311 312 312 311 311 311 310 309 308 307 306 304 303 301 300 299 300 301 302 306 309 310 310 311 312 317 322 324 327 327 321 309 300 294 285 275 268 265 260 257 254 250 247 244 239 236 234 234 234 233 233 233 233 233 233 234 233 233 233 234 233 232 232 231 232 232 233 234
298 299 300 301 303 304 304 305 305 305 306 307 308 309 310 310 311 312 312 312 311 311 311 310 309 308 306 305 304 303 302 300 300 301 301 303 306 309 310 309 310 312 316 321 325 328 329 327 319 306 297 290 281 274 271 266 261 258 255 251 246 241 237 235 235 235 235 234 233 233 233 233 233 233 233 233 233 232 232 232 230 230 232 234 235
297 297 299 300 302 303 304 305 305 306 306 307 308 309 310 310 312 312 312 312 311 311 310 310 309 308 306 305 304 303 302 301 301 302 302 304 306 309 310 309 309 312 315 318 323 327 328 328 324 313 301 292 286 281 276 271 267 263 260 255 250 244 240 237 236 236 235 234 233 233 232 232 233 234 233 233 233 231 230 231 231 230 232 234 235
295 296 298 299 301 303 304 305 306 306 307 307 307 308 310 310 311 312 312 312 311 311 310 310 309 307 306 304 303 303 302 301 302 303 302 303 305 308 310 310 309 311 313 316 322 326 328 327 324 318 307 293 286 285 281 276 272 268 264 260 253 247 242 239 236 235 235 234 233 233 232 232 233 234 233 232 232 230 230 231 232 232 233 235 234
294 296 297 299 301 303 304 306 307 307 307 307 307 308 309 310 310 310 311 311 311 311 310 310 310 308 306 305 303 302 302 301 301 302 301 301 304 307 310 310 310 311 312 314 320 325 328 328 324 321 313 299 289 286 285 281 276 272 270 266 259 249 243 240 237 235 234 233 232 232 232 232 233 232 231 231 230 230 230 231 232 232 233 234 233
294 295 297 299 301 303 304 306 307 307 307 307 307 308 308 309 309 310 311 311 311 311 311 311 311 309 306 304 303 303 303 302 301 301 301 301 303 306 309 310 310 311 311 313 318 322 326 328 327 324 318 307 296 289 286 284 281 277 275 272 264 253 245 240 237 234 232 232 232 231 231 231 231 231 230 230 229 230 231 231 232 232 232 232 232
294 296 297 299 301 302 304 305 306 307 307 307 307 308 308 308 309 310 311 311 310 311 311 311 310 308 306 303 301 301 302 302 301 301 301 302 304 306 309 310 310 311 312 313 316 319 323 327 328 327 322 316 307 297 290 286 284 282 279 275 268 257 246 240 236 233 231 231 231 230 230 230 229 230 230 230 230 230 231 231 231 232 232 231 230
294 296 297 299 301 302 303 304 305 306 306 306 307 307 307 308 309 309 309 309 309 309 309 308 307 306 305 304 302 301 301 300 300 301 302 303 305 307 309 311 311 311 313 313 314 317 320 324 327 327 325 320 317 310 301 291 287 286 284 276 268 260 248 239 235 231 229 229 229 229 228 228 228 229 230 230 230 230 231 231 231 232 232 231 229
294 295 296 299 300 301 302 303 304 305 306 307 307 307 307 307 307 307 306 306 305 305 305 305 303 302 303 303 303 301 300 300 301 301 302 303 306 308 310 311 311 311 313 314 314 316 318 321 325 328 328 324 321 318 312 300 292 290 288 281 272 262 250 239 233 231 229 228 227 226 226 227 228 229 230 230 231 231 232 232 232 232 232 231 229
293 294 296 298 299 300 301 302 302 304 305 306 306 306 307 307 307 306 305 304 303 303 303 302 300 299 300 302 302 301 300 300 300 300 301 304 307 309 310 312 313 313 313 314 315 317 318 320 323 328 332 331 327 324 319 310 301 298 295 289 281 268 249 235 230 229 228 227 226 225 225 226 227 228 229 230 231 231 232 232 232 232 232 230 229
292 294 295 296 298 299 301 302 302 303 304 305 305 305 306 307 307 306 305 304 302 301 301 299 297 297 299 300 301 301 300 298 297 298 301 304 306 308 310 313 315 315 315 315 317 318 319 321 323 327 333 336 336 335 332 322 311 309 306 298 291 279 252 233 227 227 227 226 225 225 225 225 226 227 229 230 230 231 232 233 232 231 231 230 229
291 293 295 296 297 298 301 302 302 302 304 304 305 305 305 306 306 305 304 303 302 300 299 297 294 295 297 299 300 301 301 300 299 301 303 305 306 307 308 312 316 317 316 316 318 320 321 323 324 327 333 339 341 342 345 342 329 323 321 310 298 288 261 234 226 225 226 225 224 224 224 225 226 227 228 229 230 230 230 231 230 230 230 230 229
291 293 294 294 295 297 300 301 301 302 303 303 304 304 304 304 304 304 304 303 302 300 297 293 291 292 295 298 299 300 301 302 303 304 304 306 307 307 308 311 315 317 318 318 319 321 322 324 326 329 332 338 341 342 349 356 352 341 336 328 311 292 267 234 224 223 223 224 224 224 225 226 227 228 230 229 229 228 228 229 229 229 229 229 228
290 291 292 293 295 297 299 300 301 301 302 303 304 304 304 303 302 302 302 302 301 299 295 290 288 289 293 296 298 299 300 302 305 305 305 307 308 307 307 310 314 317 319 320 321 323 324 325 327 329 331 336 342 344 349 359 3 359 353 349 343 322 265 227 216 214 217 223 225 225 225 227 228 229 229 227 227 227 227 227 228 228 228 228 227
289 289 291 293 295 296 298 299 300 302 303 304 304 304 303 302 300 299 299 300 299 296 291 287 285 287 291 294 296 297 299 301 305 307 309 310 310 309 308 310 313 317 319 320 322 324 325 327 329 332 334 337 342 347 351 357 4 8 9 11 16 29 59 163 192 199 206 216 222 222 223 225 226 225 225 224 224 224 224 223 224 225 225 225 225
288 288 290 292 294 295 296 298 300 302 303 304 305 304 302 301 300 297 296 296 295 292 287 284 284 286 289 291 293 295 298 300 303 307 310 311 311 311 311 311 313 317 321 322 323 326 328 329 331 333 336 338 341 345 351 357 2 8 15 22 31 43 63 99 136 167 184 196 206 212 216 219 219 219 220 220 220 221 221 220 221 222 222 223 224
288 290 291 292 293 295 296 297 299 301 302 303 304 303 302 300 299 297 295 293 291 287 284 282 283 285 287 289 292 295 298 300 304 307 308 309 310 310 311 311 312 316 320 322 323 326 329 331 333 334 337 340 343 345 350 357 1 4 10 20 33 45 54 75 117 152 166 170 173 181 193 204 210 213 215 216 217 218 218 217 218 218 219 221 222
290 291 291 291 292 293 295 296 298 300 302 303 303 303 302 301 299 296 292 288 285 283 280 280 282 284 286 288 292 296 298 301 304 306 306 307 307 308 309 310 311 313 318 321 322 324 328 332 335 337 338 341 344 347 349 354 357 359 4 14 28 41 49 58 76 119 162 171 167 166 172 183 195 203 208 210 212 214 215 216 217 217 217 219 219
291 291 289 289 290 291 294 297 298 300 302 303 303 303 305 305 303 297 289 283 280 279 277 277 280 282 284 287 293 297 300 302 304 306 308 309 309 310 310 309 309 310 314 317 319 321 326 331 334 336 337 339 344 347 348 351 354 357 1 8 17 29 42 54 62 73 95 143 183 190 190 187 184 188 195 201 206 211 212 212 213 214 215 217 218
290 289 288 289 290 291 294 297 298 300 302 303 303 304 306 308 307 300 288 279 277 276 275 275 278 282 284 287 292 297 302 305 306 307 310 311 312 314 315 314 312 312 314 317 319 321 324 329 332 334 335 338 343 347 348 350 353 356 360 4 8 16 29 41 49 57 62 62 76 149 179 186 183 178 181 187 195 204 208 209 209 210 212 214 216
289 288 287 288 290 292 295 297 298 299 300 301 303 305 306 308 308 300 287 279 275 272 269 270 275 281 286 290 295 299 304 307 309 309 310 311 312 315 319 321 320 317 318 320 321 323 325 327 330 333 334 335 341 346 349 351 352 355 360 2 3 10 20 26 30 41 50 51 55 70 105 151 170 174 177 181 185 192 199 204 207 209 210 211 213
288 287 287 288 290 292 295 296 297 298 299 300 303 305 304 303 302 294 283 275 271 268 267 267 270 277 285 293 298 302 306 309 310 310 310 311 312 314 318 323 325 322 321 322 323 325 326 327 330 333 335 335 337 342 348 350 351 354 358 360 1 6 12 16 21 32 41 45 48 55 68 96 133 160 176 183 187 191 194 198 201 205 208 210 213
287 287 287 288 290 292 294 295 295 297 299 301 304 304 302 297 292 285 274 266 264 266 266 266 269 275 284 293 299 304 309 311 311 312 312 313 315 314 315 318 323 325 326 325 324 325 327 329 331 334 335 335 336 338 343 348 350 353 355 357 359 2 6 11 18 24 31 39 44 43 49 65 90 122 152 169 179 187 192 195 198 199 202 205 208
286 286 287 288 290 292 293 294 296 298 299 301 304 304 301 294 288 279 268 261 262 264 264 266 272 279 287 293 298 304 309 311 312 314 316 317 317 315 312 314 320 325 328 328 326 326 327 329 332 333 334 335 335 336 338 341 345 348 352 355 358 1 3 4 7 11 18 28 27 14 18 34 56 92 134 155 167 179 189 195 198 201 203 204 206
285 285 286 287 289 290 292 294 296 298 299 301 303 303 300 293 286 278 269 263 263 265 268 271 275 281 288 293 296 299 305 308 311 314 317 318 318 316 314 316 320 324 326 328 327 327 327 328 330 331 333 333 333 333 333 334 336 340 345 348 352 356 358 1 1 2 7 12 6 347 340 344 348 340 265 201 184 184 191 195 200 206 211 212 213
284 285 285 286 287 289 292 294 296 297 297 298 300 300 297 293 286 278 271 266 265 268 273 277 278 282 288 293 294 296 298 302 307 310 314 315 316 314 315 318 321 322 325 327 326 326 327 328 329 329 330 332 332 332 331 329 328 330 334 338 342 345 348 352 356 359 3 8 7 356 336 314 300 287 274 261 245 230 218 209 205 208 212 215 217
284 285 285 284 285 288 291 293 294 294 294 294 295 294 291 289 286 278 272 271 273 274 277 279 281 284 287 290 292 294 296 299 302 306 309 311 313 314 315 317 318 319 321 322 323 325 327 328 329 328 328 328 329 329 329 328 327 326 327 328 330 333 335 337 340 344 351 357 1 0 351 330 305 282 268 260 253 244 237 230 221 217 216 218 218
284 285 284 284 285 287 290 290 291 290 289 288 289 287 284 282 282 279 276 277 280 282 282 283 284 285 286 288 290 293 296 298 300 304 306 308 310 313 314 314 313 312 312 312 314 317 318 319 321 323 323 324 324 324 325 324 324 324 324 323 323 324 326 327 327 327 330 333 337 343 344 337 324 304 283 271 266 261 255 249 243 235 229 227 224
284 283 282 282 284 285 286 287 287 286 283 282 283 283 281 279 281 283 284 284 286 287 286 285 285 285 284 285 288 291 292 293 295 299 301 302 305 308 309 307 305 303 303 303 303 305 307 309 310 312 314 315 316 317 318 319 319 320 320 320 320 320 320 320 319 318 316 315 315 319 321 320 319 315 304 291 283 277 268 261 256 250 244 241 237
283 282 281 281 283 283 284 284 283 280 278 278 280 282 281 280 282 286 288 288 289 288 287 287 287 286 285 285 288 290 289 288 290 293 294 296 299 302 302 300 299 298 298 297 296 297 300 302 304 305 306 307 308 309 310 311 312 313 314 315 315 315 314 314 313 311 309 306 304 303 304 304 304 304 303 299 293 287 280 272 266 262 258 254 250
282 280 280 280 281 281 281 280 277 274 272 274 278 282 282 282 284 286 288 288 288 287 286 286 287 287 287 287 288 289 288 287 288 290 291 291 294 297 296 294 295 296 297 296 295 295 296 298 299 300 301 302 304 304 305 306 306 306 307 308 308 308 308 308 307 307 305 303 300 298 296 296 294 292 292 291 288 285 283 279 275 271 268 265 261
279 279 279 279 279 279 277 275 272 270 270 273 278 282 283 284 284 285 286 286 286 286 284 284 283 283 284 285 285 286 286 287 287 288 288 289 291 293 293 293 293 294 295 295 295 295 294 294 295 296 297 299 299 299 300 300 301 301 301 302 302 302 302 300 299 300 299 299 298 296 294 292 290 287 286 285 284 282 280 280 278 274 270 267 265
278 278 278 278 277 276 274 273 272 271 273 275 278 281 283 283 283 283 283 284 284 284 284 283 282 281 282 282 283 284 285 285 284 284 285 286 288 290 291 292 293 293 293 293 294 294 293 292 292 292 293 294 295 295 296 296 296 297 297 297 297 298 298 297 296 295 294 293 292 292 291 289 288 287 284 283 282 280 278 278 278 274 270 267 266
277 277 277 278 277 275 274 274 274 274 275 276 278 280 281 282 282 282 282 281 281 282 283 283 283 282 281 281 281 282 282 281 281 282 284 285 287 288 289 291 292 291 291 292 293 293 293 292 291 291 290 290 291 292 292 293 294 294 294 294 294 294 294 294 293 292 291 290 289 288 287 287 286 286 285 282 281 280 278 277 276 274 272 270 268
276 276 276 276 275 274 274 275 275 275 276 276 277 278 280 281 281 282 281 281 280 280 281 282 282 282 281 281 280 279 279 280 281 283 284 285 286 286 287 289 290 291 291 291 292 293 293 293 293 292 291 291 290 290 290 290 291 292 292 293 293 293 292 292 292 291 290 289 288 287 286 285 285 285 285 283 281 280 278 277 275 273 272 271 269
276 275 275 274 274 274 275 276 277 277 277 277 277 278 278 279 279 280 280 280 280 280 281 281 281 281 280 279 279 279 280 281 282 282 283 283 283 284 285 287 288 289 290 291 292 293 293 293 293 293 293 292 292 292 292 291 291 291 292 293 293 294 293 293 292 290 289 288 287 287 287 286 285 284 284 282 281 280 279 278 276 274 273 272 271
276 276 275 275 275 275 276 277 277 277 278 277 276 276 277 277 278 278 279 279 279 280 280 280 279 279 278 278 278 278 279 280 280 280 281 281 281 282 284 285 285 286 287 289 291 291 292 292 293 293 293 293 293 293 294 294 294 293 293 294 295 296 296 294 293 291 290 289 287 287 286 285 284 284 283 282 281 279 279 278 277 276 274 273 272
277 276 277 277 277 278 278 277 277 277 277 277 276 276 277 277 278 278 278 278 278 279 279 278 277 277 277 277 277 278 278 278 279 280 280 281 282 283 284 284 284 284 285 286 288 289 290 291 292 293 293 293 294 294 294 294 294 294 295 296 296 297 296 296 294 293 291 289 288 287 286 285 284 284 283 282 281 280 279 278 276 275 274 273 273
277 276 277 279 279 280 279 279 278 278 277 277 277 277 278 278 278 278 278 278 277 277 276 276 275 276 276 276 277 278 278 279 280 280 280 280 281 282 283 284 283 283 284 285 287 288 289 290 292 293 293 293 293 293 293 293 294 294 294 295 296 296 296 295 294 293 292 290 288 288 287 286 285 284 283 282 281 280 279 279 277 275 274 273 272
277 277 278 279 280 280 280 279 279 279 278 278 278 278 277 278 278 277 277 276 275 274 274 274 274 275 276 276 277 278 278 278 279 280 279 279 280 280 281 282 282 283 284 285 287 288 288 289 290 292 292 293 293 292 292 293 293 292 293 295 295 295 295 294 292 292 291 290 287 286 286 286 285 285 284 283 282 281 280 279 278 276 274 273 271